Location: Miles
(41.4492°N, 81.6087°W)
Time: 14:13:40
(UTC+00:00)

A-11 Canister half - Pass Details

Date: 20 September 2024
Orbit: 1515 x 1684 km, 47.2° (Epoch: 11 October)

Event Time Altitude Azimuth Distance (km) Brightness Sun altitude
Rises 00:51:07 0° 266° (W) 4,733 12.9 -16.2°
Reaches altitude 10° 00:54:16 10° 270° (W) 3,730 12.2 -16.8°
Maximum altitude 01:03:35 64° 351° (N) 1,663 9.2 -18.5°
Enters shadow 01:11:03 17° 70° (ENE) 3,148 10.2 -19.8°
